| time (UTC) | temp F | wind direction | speed MPH | gust MPH | rain 1hr in | rain 24hr in | rain mn in | humidity % | barometer mb |
| 20260507144504 | 49 | 40 | 2.0 | 7.0 | 0.00 | 1.34 | 0.34 | 80 | 1002.1 |
| 20260507143011 | 49 | 351 | 3.0 | 9.0 | 0.00 | 1.34 | 0.34 | 81 | 1002.3 |
| 20260507141516 | 48 | 225 | 3.0 | 9.0 | 0.00 | 1.34 | 0.34 | 87 | 1002.4 |
| 20260507140019 | 46 | 294 | 3.0 | 9.0 | 0.00 | 1.34 | 0.34 | 89 | 1002.4 |
| 20260507134520 | 45 | 277 | 2.0 | 7.0 | 0.00 | 1.34 | 0.34 | 89 | 1002.8 |
| 20260507133002 | 45 | 241 | 2.0 | 4.0 | 0.00 | 1.34 | 0.34 | 90 | 1002.5 |
| 20260507131516 | 44 | 301 | 5.0 | 9.0 | 0.00 | 1.34 | 0.34 | 89 | 1002.3 |
| 20260507130011 | 44 | 271 | 2.0 | 6.0 | 0.00 | 1.34 | 0.34 | 90 | 1002.7 |
| 20260507124520 | 43 | 309 | 2.0 | 7.0 | 0.00 | 1.34 | 0.34 | 92 | 1002.8 |
| 20260507123021 | 43 | 306 | 4.0 | 9.0 | 0.00 | 1.34 | 0.34 | 91 | 1002.7 |
| 20260507121508 | 43 | 289 | 3.0 | 7.0 | 0.00 | 1.34 | 0.34 | 93 | 1002.9 |
| 20260507120010 | 43 | 289 | 2.0 | 6.0 | 0.00 | 1.34 | 0.34 | 94 | 1002.7 |
| 20260507114515 | 43 | 312 | 1.0 | 6.0 | 0.00 | 1.34 | 0.34 | 94 | 1002.7 |
| 20260507113037 | 42 | 290 | 4.0 | 9.0 | 0.00 | 1.35 | 0.34 | 95 | 1002.2 |
| 20260507111525 | 42 | 305 | 2.0 | 6.0 | 0.00 | 1.36 | 0.34 | 95 | 1002.1 |
| 20260507110028 | 42 | 309 | 4.0 | 8.0 | 0.00 | 1.37 | 0.34 | 95 | 1002.4 |
| 20260507104513 | 42 | 285 | 2.0 | 4.0 | 0.01 | 1.37 | 0.34 | 96 | 1002.5 |
| 20260507103018 | 42 | 263 | 0.0 | 8.0 | 0.02 | 1.38 | 0.34 | 96 | 1002.7 |
| 20260507101520 | 42 | 310 | 2.0 | 7.0 | 0.02 | 1.39 | 0.34 | 96 | 1002.3 |
| 20260507100026 | 42 | 311 | 2.0 | 7.0 | 0.04 | 1.41 | 0.34 | 95 | 1002.0 |
| 20260507094533 | 42 | 304 | 2.0 | 8.0 | 0.04 | 1.41 | 0.33 | 95 | 1002.0 |
| 20260507093013 | 42 | 302 | 3.0 | 8.0 | 0.03 | 1.42 | 0.32 | 95 | 1001.9 |
| 20260507091523 | 42 | 309 | 3.0 | 10.0 | 0.04 | 1.43 | 0.32 | 95 | 1001.9 |
| 20260507090023 | 42 | 323 | 5.0 | 9.0 | 0.03 | 1.42 | 0.30 | 95 | 1001.8 |
| 20260507084534 | 42 | 313 | 5.0 | 9.0 | 0.02 | 1.42 | 0.29 | 96 | 1001.7 |
| 20260507083030 | 43 | 300 | 3.0 | 10.0 | 0.02 | 1.43 | 0.29 | 96 | 1001.6 |
| 20260507081520 | 43 | 306 | 5.0 | 10.0 | 0.02 | 1.42 | 0.28 | 96 | 1001.7 |
| 20260507080021 | 43 | 331 | 4.0 | 8.0 | 0.03 | 1.44 | 0.27 | 96 | 1001.5 |
| 20260507074523 | 43 | 294 | 4.0 | 11.0 | 0.04 | 1.46 | 0.27 | 96 | 1001.5 |
| 20260507073029 | 43 | 309 | 5.0 | 10.0 | 0.05 | 1.48 | 0.27 | 96 | 1001.4 |
| 20260507071530 | 43 | 329 | 3.0 | 9.0 | 0.07 | 1.50 | 0.26 | 96 | 1001.6 |
| 20260507070021 | 43 | 300 | 2.0 | 7.0 | 0.09 | 1.52 | 0.24 | 96 | 1001.8 |
| 20260507064525 | 44 | 296 | 3.0 | 9.0 | 0.11 | 1.56 | 0.23 | 96 | 1001.7 |
| 20260507063028 | 44 | 302 | 3.0 | 7.0 | 0.12 | 1.57 | 0.22 | 96 | 1001.6 |
| 20260507061529 | 44 | 315 | 3.0 | 6.0 | 0.10 | 1.54 | 0.19 | 96 | 1002.1 |
| 20260507060027 | 44 | 308 | 3.0 | 6.0 | 0.08 | 1.50 | 0.15 | 96 | 1002.0 |
| 20260507054520 | 45 | 325 | 2.0 | 4.0 | 0.06 | 1.47 | 0.12 | 96 | 1002.2 |
| 20260507053024 | 45 | 307 | 3.0 | 8.0 | 0.06 | 1.45 | 0.10 | 97 | 1002.3 |
| 20260507051528 | 45 | 339 | 3.0 | 9.0 | 0.07 | 1.44 | 0.09 | 97 | 1002.3 |
| 20260507050031 | 45 | 314 | 3.0 | 9.0 | 0.07 | 1.42 | 0.07 | 97 | 1002.1 |
| 20260507044527 | 45 | 346 | 3.0 | 10.0 | 0.09 | 1.41 | 0.06 | 97 | 1002.1 |
| 20260507043029 | 45 | 290 | 3.0 | 7.0 | 0.07 | 1.39 | 0.04 | 97 | 1002.3 |
| 20260507041526 | 45 | 307 | 2.0 | 7.0 | 0.06 | 1.37 | 0.02 | 97 | 1002.4 |
| 20260507040028 | 45 | 341 | 0.0 | 3.0 | 0.05 | 1.35 | 0.00 | 97 | 1002.4 |
| 20260507034535 | 45 | 339 | 1.0 | 4.0 | 0.02 | 1.32 | 1.32 | 97 | 1002.4 |
| 20260507033028 | 46 | 352 | 3.0 | 5.0 | 0.03 | 1.32 | 1.32 | 97 | 1002.6 |
| 20260507031533 | 46 | 352 | 0.0 | 2.0 | 0.04 | 1.31 | 1.31 | 97 | 1002.7 |
| 20260507030027 | 46 | 314 | 0.0 | 3.0 | 0.06 | 1.30 | 1.30 | 97 | 1002.9 |
| 20260507024528 | 46 | 340 | 1.0 | 4.0 | 0.07 | 1.30 | 1.30 | 97 | 1003.1 |
| 20260507023006 | 46 | 47 | 1.0 | 3.0 | 0.07 | 1.29 | 1.29 | 97 | 1003.3 |
| 20260507021503 | 46 | 334 | 1.0 | 4.0 | 0.05 | 1.27 | 1.27 | 97 | 1003.9 |
| 20260507020006 | 46 | 330 | 2.0 | 5.0 | 0.03 | 1.24 | 1.24 | 97 | 1004.2 |
| 20260507014509 | 46 | 311 | 2.0 | 6.0 | 0.02 | 1.23 | 1.23 | 97 | 1004.2 |
| 20260507013020 | 46 | 350 | 2.0 | 4.0 | 0.01 | 1.22 | 1.22 | 97 | 1004.2 |
| 20260507011506 | 46 | 342 | 2.0 | 5.0 | 0.02 | 1.22 | 1.22 | 97 | 1004.4 |
| 20260507010006 | 46 | 327 | 1.0 | 3.0 | 0.02 | 1.21 | 1.21 | 97 | 1004.6 |
| 20260507004511 | 46 | 343 | 2.0 | 4.0 | 0.03 | 1.21 | 1.21 | 97 | 1004.7 |
| 20260507003011 | 46 | 344 | 0.0 | 3.0 | 0.04 | 1.21 | 1.21 | 97 | 1004.7 |
| 20260507001544 | 46 | 309 | 1.0 | 3.0 | 0.05 | 1.20 | 1.20 | 96 | 1004.6 |
| 20260507000012 | 46 | 309 | 0.0 | 1.0 | 0.06 | 1.19 | 1.19 | 97 | 1004.6 |
| 20260506234506 | 46 | 309 | 0.0 | 3.0 | 0.07 | 1.17 | 1.17 | 96 | 1004.7 |
| 20260506233009 | 46 | 352 | 0.0 | 2.0 | 0.09 | 1.16 | 1.16 | 96 | 1004.6 |
| 20260506231511 | 46 | 275 | 0.0 | 3.0 | 0.09 | 1.15 | 1.15 | 96 | 1004.7 |
| 20260506230017 | 46 | 344 | 1.0 | 2.0 | 0.10 | 1.13 | 1.13 | 96 | 1004.6 |
| 20260506224522 | 46 | 334 | 0.0 | 3.0 | 0.11 | 1.12 | 1.11 | 96 | 1004.7 |
| 20260506223006 | 47 | 352 | 2.0 | 5.0 | 0.10 | 1.11 | 1.08 | 96 | 1004.8 |
| 20260506221508 | 47 | 347 | 1.0 | 3.0 | 0.10 | 1.09 | 1.05 | 96 | 1005.0 |
| 20260506220016 | 46 | 346 | 1.0 | 3.0 | 0.09 | 1.10 | 1.03 | 96 | 1005.1 |
| 20260506214521 | 46 | 21 | 0.0 | 2.0 | 0.08 | 1.08 | 1.00 | 96 | 1005.2 |
| 20260506213024 | 47 | 302 | 3.0 | 4.0 | 0.07 | 1.09 | 0.98 | 96 | 1005.4 |
| 20260506211508 | 47 | 346 | 1.0 | 3.0 | 0.08 | 1.22 | 0.96 | 96 | 1005.3 |
| 20260506210024 | 47 | 342 | 0.0 | 3.0 | 0.12 | 1.20 | 0.94 | 96 | 1005.6 |
| 20260506204518 | 47 | 360 | 0.0 | 3.0 | 0.13 | 1.17 | 0.92 | 95 | 1005.3 |
| 20260506203022 | 46 | 59 | 1.0 | 3.0 | 0.16 | 1.16 | 0.91 | 95 | 1005.5 |
| 20260506201526 | 47 | 319 | 1.0 | 7.0 | 0.16 | 1.14 | 0.88 | 95 | 1006.1 |
| 20260506200008 | 47 | 11 | 1.0 | 4.0 | 0.11 | 1.08 | 0.82 | 95 | 1005.6 |
| 20260506194516 | 47 | 88 | 1.0 | 3.0 | 0.09 | 1.04 | 0.79 | 95 | 1005.6 |
| 20260506193029 | 47 | 344 | 0.0 | 3.0 | 0.07 | 1.01 | 0.75 | 95 | 1006.4 |
| 20260506191521 | 47 | 335 | 0.0 | 5.0 | 0.05 | 0.98 | 0.72 | 95 | 1006.4 |
| 20260506190031 | 47 | 313 | 2.0 | 4.0 | 0.06 | 0.97 | 0.71 | 95 | 1006.7 |
| 20260506184513 | 47 | 5 | 0.0 | 7.0 | 0.07 | 0.96 | 0.70 | 95 | 1006.5 |
| 20260506183015 | 47 | 323 | 3.0 | 5.0 | 0.06 | 0.94 | 0.68 | 94 | 1006.7 |
| 20260506181534 | 48 | 135 | 1.0 | 4.0 | 0.07 | 0.93 | 0.67 | 95 | 1006.5 |
| 20260506180027 | 47 | 321 | 1.0 | 2.0 | 0.11 | 0.91 | 0.65 | 94 | 1007.5 |
| 20260506174527 | 48 | 330 | 0.0 | 4.0 | 0.14 | 0.89 | 0.63 | 94 | 1007.4 |
| 20260506173014 | 48 | 313 | 0.0 | 2.0 | 0.20 | 0.88 | 0.62 | 94 | 1007.9 |
| 20260506171504 | 48 | 336 | 1.0 | 3.0 | 0.18 | 0.86 | 0.60 | 94 | 1008.1 |
| 20260506170003 | 48 | 302 | 0.0 | 3.0 | 0.15 | 0.80 | 0.54 | 94 | 1008.5 |
| 20260506164517 | 49 | 258 | 0.0 | 2.0 | 0.13 | 0.75 | 0.49 | 93 | 1008.2 |
| 20260506163007 | 49 | 173 | 0.0 | 3.0 | 0.07 | 0.68 | 0.42 | 92 | 1007.8 |
| 20260506161504 | 49 | 58 | 1.0 | 3.0 | 0.07 | 0.68 | 0.42 | 91 | 1007.5 |
| 20260506160003 | 49 | 145 | 0.0 | 2.0 | 0.04 | 0.65 | 0.39 | 92 | 1008.9 |
| 20260506154503 | 49 | 262 | 0.0 | 3.0 | 0.01 | 0.62 | 0.36 | 90 | 1009.0 |
| 20260506153003 | 49 | 207 | 2.0 | 5.0 | 0.00 | 0.61 | 0.35 | 88 | 1008.7 |
| 20260506151502 | 49 | 216 | 2.0 | 5.0 | 0.00 | 0.61 | 0.35 | 89 | 1008.8 |
| 20260506150004 | 49 | 236 | 1.0 | 4.0 | 0.00 | 0.61 | 0.35 | 89 | 1008.9 |